Flag for Morocco Weather past 2 weeks in Tangier, Morocco

Now
68 °F

Passing clouds.


Feels Like: 68 °F
Forecast: 65 / 73 °F
Wind: 9 mph from West

Location: Tanger Aerodrome

Current Time: Sep 3, 2015 at 5:57:32 AM

Latest Report: Sep 3, 2015 at 5:00 AM


Visibility: 5 mi

Pressure: 30.01 "Hg

Humidity: 69%

Dew point: 57 °F

Location of TangierLocation

Historic Weather in Tangier — Graph

°F

Tangier temperature yesterday

Maximum temperature yesterday: 77 °F (at 1:00 PM)
Minimum temperature yesterday: 64 °F (at 7:00 AM)
Average temperature yesterday: 71 °F

Past Weeks' High & Low Weather Summary

 TemperatureHumidityPressure
High91 °F (Aug 20, 12:30 PM)94% (Aug 21, 7:00 AM)30.09 "Hg (Aug 21, 7:00 AM)
Low61 °F (Aug 25, 7:00 AM)38% (Aug 20, 1:00 PM)29.83 "Hg (Aug 28, 5:00 PM)
Average75 °F70%30.00 "Hg
* Reported Aug 19 4:00 AM — Sep 3 4:30 AM, Tangier, Weather by CustomWeather, © 2015

Note: Actual official high and low records may vary slightly from our data, if they occured in-between our weather recording intervals... More about our weather records

Advertising

Tangier weather history for previous 24 hours

 ConditionsComfort  
Time TempWeatherWind HumidityBarometerVisibility
4:30 AM
Thu, Sep 3
68 °FPassing clouds.12 mph69%30.01 "Hg5 mi
4:00 AM68 °FPassing clouds.10 mph64%30.01 "Hg5 mi
3:30 AM68 °FPassing clouds.12 mph69%30.01 "Hg5 mi
3:00 AM70 °FPassing clouds.10 mph69%30.01 "Hg5 mi
2:30 AM70 °FPassing clouds.9 mph64%30.01 "Hg5 mi
2:00 AM68 °FPassing clouds.12 mph69%30.01 "Hg5 mi
1:30 AM68 °FPassing clouds.10 mph73%30.04 "Hg5 mi
1:00 AM70 °FPassing clouds.10 mph73%30.04 "Hg5 mi
12:30 AM70 °FPassing clouds.12 mph69%30.04 "Hg5 mi
12:00 AM70 °FPassing clouds.12 mph69%30.04 "Hg5 mi
10:30 PM
Wed, Sep 2
70 °FPassing clouds.12 mph64%30.04 "Hg5 mi
10:00 PM70 °FPassing clouds.12 mph73%30.04 "Hg5 mi
9:30 PM70 °FPassing clouds.9 mph73%30.01 "Hg5 mi
9:00 PM70 °FPassing clouds.13 mph78%30.01 "Hg5 mi
8:30 PM70 °FPassing clouds.9 mph78%30.01 "Hg5 mi
8:00 PM70 °FPassing clouds.9 mph78%29.98 "Hg5 mi
7:30 PM72 °FScattered clouds.12 mph69%29.98 "HgN/A
7:00 PM72 °FScattered clouds.13 mph69%29.98 "HgN/A
6:30 PM73 °FScattered clouds.15 mph61%29.98 "HgN/A
6:00 PM73 °FScattered clouds.15 mph61%29.98 "HgN/A
5:30 PM75 °FScattered clouds.15 mph61%29.98 "HgN/A
5:00 PM75 °FScattered clouds.16 mph57%29.98 "HgN/A
4:30 PM75 °FScattered clouds.14 mph57%29.98 "HgN/A
4:00 PM77 °FScattered clouds.14 mph54%29.98 "HgN/A
3:30 PM75 °FScattered clouds.15 mph61%30.01 "HgN/A
3:00 PM77 °FScattered clouds.16 mph57%30.01 "HgN/A
2:30 PM77 °FScattered clouds.15 mph57%30.01 "HgN/A
2:00 PM77 °FScattered clouds.15 mph54%30.04 "HgN/A
1:30 PM77 °FScattered clouds.16 mph57%30.04 "HgN/A
1:00 PM77 °FScattered clouds.15 mph54%30.04 "HgN/A
12:30 PM75 °FScattered clouds.16 mph61%30.04 "HgN/A
12:00 PM75 °FScattered clouds.15 mph61%30.04 "HgN/A
11:30 AM75 °FScattered clouds.16 mph57%30.04 "HgN/A
11:00 AM75 °FScattered clouds.16 mph61%30.04 "HgN/A
10:30 AM75 °FPartly sunny.16 mph61%30.04 "HgN/A
10:00 AM72 °FPartly sunny.12 mph69%30.04 "HgN/A
9:30 AM72 °FPartly sunny.13 mph69%30.04 "HgN/A
9:00 AM72 °FPartly sunny.8 mph73%30.01 "HgN/A
8:30 AM70 °FPartly sunny.8 mph78%30.01 "HgN/A
8:00 AM68 °FScattered clouds.6 mph83%30.01 "Hg4 mi
7:30 AM64 °FScattered clouds.No wind88%30.01 "Hg4 mi
7:00 AM64 °FScattered clouds.2 mph88%30.01 "Hg4 mi
6:30 AM66 °FPassing clouds.3 mph83%29.98 "Hg4 mi
6:00 AM68 °FPassing clouds.5 mph83%29.98 "Hg4 mi
5:00 AM68 °FPassing clouds.3 mph83%30.01 "Hg4 mi
Weather by CustomWeather, © 2015

See weather overviewHow to use our weather pages